JJA122 RKPC-RKSS

Flight info

Callsign JJA122
Flight time N/A
Altitude 23000
Route KAMIT1W KAMIT Y722 OLMEN OLMEN2T
Aircraft B738/M-SDE2E3FGHIRWXY/LB1

Departure

Time 2026-05-04 06:08
Airport Jeju International Airport (RKPC)

Arrival

Time N/A
Airport Gimpo International Airport (RKSS)
Time Latitude Longitude Altitude Speed Heading
2026-05-04 06:07 33.51450 126.49693 126 ft 1 kts 238°
2026-05-04 06:07 33.51414 126.49622 127 ft 32 kts 238°
2026-05-04 06:08 33.51277 126.49358 127 ft 78 kts 239°
2026-05-04 06:08 33.50705 126.48247 127 ft 154 kts 239°
2026-05-04 06:08 33.50299 126.47477 399 ft 162 kts 240°
2026-05-04 06:08 33.49716 126.46357 973 ft 168 kts 241°
2026-05-04 06:09 33.48872 126.44721 1791 ft 174 kts 241°
2026-05-04 06:09 33.48454 126.43898 2169 ft 175 kts 241°
2026-05-04 06:11 33.54693 126.41420 5151 ft 251 kts 17°
2026-05-04 06:11 33.56352 126.42235 5528 ft 265 kts 17°
2026-05-04 06:13 33.68561 126.48370 10394 ft 286 kts 17°
2026-05-04 06:14 33.81235 126.54738 13280 ft 358 kts 17°
2026-05-04 06:14 33.83558 126.55912 13937 ft 362 kts 17°
2026-05-04 06:15 33.85886 126.57089 14571 ft 366 kts 17°
2026-05-04 06:15 33.89037 126.58689 15407 ft 372 kts 17°
2026-05-04 06:15 33.90501 126.59440 15803 ft 374 kts 16°
2026-05-04 06:15 33.92918 126.60651 16365 ft 379 kts 15°
2026-05-04 06:16 33.95353 126.61862 16917 ft 384 kts 15°
2026-05-04 06:16 33.97855 126.63123 17467 ft 390 kts 15°
2026-05-04 06:16 34.00372 126.64415 17998 ft 395 kts 15°
2026-05-04 06:16 34.02913 126.65706 18476 ft 401 kts 15°
2026-05-04 06:17 34.05521 126.67026 18965 ft 407 kts 16°
2026-05-04 06:17 34.08132 126.68348 19445 ft 413 kts 16°
2026-05-04 06:17 34.10804 126.69702 19935 ft 419 kts 16°
2026-05-04 06:17 34.14440 126.71548 20648 ft 425 kts 16°
2026-05-04 06:18 34.16267 126.72476 20995 ft 428 kts 16°
2026-05-04 06:18 34.19017 126.73875 21502 ft 432 kts 16°
2026-05-04 06:18 34.22728 126.75667 22157 ft 435 kts 13°